FW4190 Weather Reports


time (UTC)temp
C
wind
direction
speed
KPH
gust
KPH
rain 1hr
cm
rain 24hr
cm
rain mn
cm
humidity
%
barometer
mb
20260507124602 12 0.0 1.6 0.00 0.00 0.00 34 1020.1
20260507123052 12 3.2 4.8 0.00 0.00 0.00 33 1020.1
20260507121548 12 0.0 3.2 0.00 0.00 0.00 34 1020.0
20260507120044 11 3.2 9.7 0.00 0.00 0.00 40 1019.9
20260507114559 10 8.0 9.7 0.00 0.00 0.00 82 1020.0
20260507113101 10 11.3 14.5 0.00 0.00 0.00 81 1020.1
20260507111541 10 12.9 16.1 0.00 0.00 0.00 83 1020.5
20260507110033 10 12.9 14.5 0.00 0.00 0.00 86 1020.7
20260507104538 10 11.3 12.9 0.00 0.00 0.00 89 1021.1
20260507103027 10 6.4 8.0 0.00 0.00 0.00 86 1021.3
20260507101554 10 6.4 8.0 0.00 0.00 0.00 86 1021.4
20260507100050 10 8.0 11.3 0.00 0.00 0.00 92 1021.5
20260507094547 9 9.7 12.9 0.00 0.00 0.00 92 1021.8
20260507093050 10 1.6 3.2 0.00 0.00 0.00 86 1021.9
20260507091552 10 1.6 9.7 0.00 0.00 0.00 74 1021.8
20260507090044 10 1.6 4.8 0.00 0.00 0.00 63 1021.9
20260507084513 9 3.2 6.4 0.00 0.00 0.00 66 1021.8
20260507083014 7 3.2 4.8 0.00 0.00 0.00 95 1021.9
20260507081549 8 0.0 0.0 0.00 0.00 0.00 97 1021.9
20260507080045 8 0.0 1.6 0.00 0.00 0.00 98 1022.0
20260507074543 8 3.2 8.0 0.00 0.00 0.00 97 1021.8
20260507073037 9 3.2 8.0 0.00 0.00 0.00 96 1021.7
20260507071535 9 1.6 8.0 0.00 0.00 0.00 95 1021.3
20260507070035 10 1.6 4.8 0.00 0.00 0.00 94 1020.9
20260507064534 10 3.2 6.4 0.00 0.00 0.00 95 1020.8
20260507063034 10 1.6 14.5 0.00 0.00 0.00 96 1020.5
20260507061530 10 14.5 17.7 0.00 0.00 0.00 97 1020.4
20260507060030 10 16.1 19.3 0.00 0.00 0.00 98 1020.1
20260507054527 10 9.7 16.1 0.00 0.00 0.00 98 1020.0
20260507053027 10 4.8 12.9 0.00 0.00 0.00 97 1019.8
20260507051526 11 3.2 9.7 0.00 0.00 0.00 96 1019.7
20260507050030 11 8.0 11.3 0.00 0.00 0.00 97 1019.4
20260507044609 11 3.2 11.3 0.00 0.00 0.00 98 1019.3
20260507043104 11 1.6 6.4 0.00 0.00 0.00 98 1019.1
20260507041555 11 0.0 1.6 0.00 0.00 0.00 97 1018.9
20260507040049 11 4.8 9.7 0.00 0.00 0.00 97 1018.9
20260507034553 12 0.0 4.8 0.00 0.00 0.00 96 1018.9
20260507033049 12 4.8 8.0 0.00 0.00 0.00 96 1018.9
20260507031549 12 0.0 3.2 0.00 0.00 0.00 96 1018.5
20260507030047 11 0.0 4.8 0.00 0.00 0.00 95 1018.5
20260507024551 12 1.6 6.4 0.00 0.00 0.00 93 1018.5
20260507023057 13 0.0 3.2 0.00 0.00 0.00 92 1018.4
20260507021543 14 0.0 4.8 0.00 0.00 0.00 91 1018.5
20260507020050 15 3.2 12.9 0.00 0.00 0.00 89 1018.4
20260507014541 14 4.8 12.9 0.00 0.00 0.00 91 1018.4
20260507013040 15 3.2 9.7 0.00 0.00 0.00 90 1018.6
20260507011546 15 1.6 6.4 0.00 0.00 0.00 89 1018.5
20260507010040 14 0.0 8.0 0.00 0.00 0.00 91 1018.7
20260507004539 15 6.4 11.3 0.00 0.00 0.00 89 1018.7
20260507003036 15 3.2 9.7 0.00 0.00 0.00 88 1018.9
20260507001604 15 3.2 8.0 0.00 0.00 0.00 86 1018.8
20260507000041 15 4.8 0.0 0.00 0.00 0.00 87 1018.8
20260506234504 15 4.8 12.9 0.00 0.00 0.00 88 1019.0
20260506233005 16 6.4 11.3 0.00 0.00 0.00 85 1019.4
20260506231502 15 4.8 11.3 0.00 0.00 0.00 87 1019.7
20260506230115 15 3.2 12.9 0.00 0.00 0.00 87 1019.6
20260506224559 15 6.4 16.1 0.00 0.00 0.00 86 1019.5
20260506223103 16 8.0 17.7 0.00 0.00 0.00 82 1019.8
20260506221612 16 6.4 12.9 0.00 0.00 0.00 81 1019.8
20260506220034 15 6.4 14.5 0.00 0.00 0.00 77 1019.8
20260506214527 15 3.2 12.9 0.00 0.00 0.00 79 1020.2
20260506213027 16 6.4 12.9 0.00 0.00 0.00 79 1020.6
20260506211523 15 3.2 9.7 0.00 0.00 0.00 79 1020.4
20260506210043 15 3.2 11.3 0.00 0.00 0.00 84 1020.6
20260506204520 15 4.8 9.7 0.00 0.00 0.00 82 1020.7
20260506203017 14 3.2 9.7 0.00 0.00 0.00 84 1020.9
20260506201520 14 0.0 6.4 0.00 0.00 0.00 86 1020.7
20260506200012 14 3.2 11.3 0.00 0.00 0.00 82 1020.8
20260506194511 15 3.2 8.0 0.00 0.00 0.00 80 1020.7
20260506193018 13 3.2 9.7 0.00 0.00 0.00 75 1020.7
20260506191511 12 4.8 11.3 0.00 0.00 0.00 80 1020.6
20260506190004 11 9.7 14.5 0.00 0.00 0.00 80 1020.8
20260506184504 11 12.9 20.9 0.00 0.00 0.00 81 1021.0
20260506183002 11 9.7 16.1 0.00 0.00 0.00 80 1021.1
20260506181604 11 8.0 11.3 0.00 0.00 0.00 65 1020.9
20260506181502 12 8.0 11.3 0.00 0.00 0.00 66 1020.8
20260506180058 12 3.2 11.3 0.00 0.00 0.00 64 1020.6
20260506174556 12 9.7 12.9 0.00 0.00 0.00 50 1020.3
20260506173024 13 3.2 12.9 0.00 0.00 0.00 41 1020.1
20260506171529 12 11.3 14.5 0.00 0.00 0.00 41 1020.1
20260506170026 13 0.0 9.7 0.00 0.00 0.00 32 1019.8
20260506164538 13 9.7 14.5 0.00 0.00 0.00 32 1019.7
20260506163014 -17 0.0 0.0 0.00 0.00 0.00 1019.8
20260506161510 -17 0.0 0.0 0.00 0.00 0.00 1019.6
20260506160003 -17 1.6 12.9 0.00 0.03 0.00 35 1019.6
20260506154600 12 4.8 12.9 0.00 0.03 0.00 37 1019.5
20260506153055 10 3.2 11.3 0.00 0.03 0.00 65 1019.0
20260506151556 10 12.9 25.7 0.00 0.03 0.00 70 1018.7
20260506144551 7 22.5 27.4 0.00 0.05 0.00 98 1018.6
20260506143051 7 20.9 25.7 0.00 0.05 0.00 97 1018.5
20260506141550 8 16.1 20.9 0.00 0.05 0.00 97 1018.8
20260506140048 7 0.0 9.7 0.00 0.05 0.00 93 1018.5
20260506134546 8 16.1 20.9 0.00 0.05 0.00 96 1018.5
20260506133101 9 17.7 20.9 0.00 0.05 0.00 93 1018.6
20260506131547 10 4.8 9.7 0.00 0.05 0.00 72 1018.7
20260506130043 8 12.9 14.5 0.00 0.05 0.00 92 1018.8